Hourly Data Report for October 04, 2017

All times are specified in Local Standard Time (LST). Add 1 hour to adjust for Daylight Saving Time where and when it is observed.

KLEEFELD (MAFRI)
MANITOBA

49°31'04.000" N
96°54'04.000" W
246.50 m
5021500
71646
PTG

Download Data

Hourly Data (October 2017)
Hourly Data Report for October 4, 2017
Temp Definition
°C
Dew Point Temp Definition
°C
Rel Hum Definition
%
Wind Dir Definition
10's deg

Wind Spd Definition
km/h
Visibility Definition
km
Stn Press Definition
kPa
Hmdx Definition


Wind Chill Definition


Weather Definition


TIME
00:00 7.4 2.9 73 24 7   99.08     LegendNANA
01:00 6.8 2.5 74 27 8   99.12     LegendNANA
02:00 7.0 2.2 71 26 8   99.17     LegendNANA
03:00 7.1 2.1 71 25 9   99.18     LegendNANA
04:00 7.3 2.4 71 25 10   99.17     LegendNANA
05:00 7.2 3.3 76 26 11   99.23     LegendNANA
06:00 7.2 3.9 79 26 11   99.23     LegendNANA
07:00 6.8 4.1 83 25 9   99.27     LegendNANA
08:00 7.4 3.3 75 26 18   99.31     LegendNANA
09:00 7.4 3.0 74 27 19   99.33     LegendNANA
10:00 8.7 3.4 70 26 21   99.30     LegendNANA
11:00 10.3 3.0 60 25 24   99.28     LegendNANA
12:00 12.1 2.2 51 25 23   99.21     LegendNANA
13:00 13.1 2.2 48 25 20   99.12     LegendNANA
14:00 13.6 2.7 48 24 24   99.05     LegendNANA
15:00 13.9 2.3 46 24 22   98.99     LegendNANA
16:00 13.8 2.4 46 24 25   98.94     LegendNANA
17:00 13.0 2.4 48 25 18   98.93     LegendNANA
18:00 10.5 1.6 54 25 12   98.94     LegendNANA
19:00 8.8 1.4 60 24 11   98.97     LegendNANA
20:00 6.6 2.4 74 21 11   98.98     LegendNANA
21:00 5.3 1.8 78 22 11   98.99     LegendNANA
22:00 3.6 1.3 85 20 10   98.96     LegendNANA
23:00 3.7 1.2 84 21 11   98.98     LegendNANA

Notes on Data Quality.

Legend

  • E = Estimated
  • M = Missing
  • NA = Not Available
  • ‡ = Partner data that is not subject to review by the National Climate Archives
Date modified: